Regional Weather Roundup
Issued by NWS State College, PA

Home | Current Version | Previous Version | Text Only | Print | Product List | Glossary Off
Versions: 1 2 3 4 5 6 7 8 9 10 11 12 13 14 15 16 17 18 19 20 21 22 23 24 25 26 27 28 29 30 31 32 33 34 35 36 37 38 39 40 41 42 43 44 45 46 47 48 49 50

000
ASUS41 KCTP 060003
RWRCTP

REGIONAL WEATHER ROUNDUP
NATIONAL WEATHER SERVICE STATE COLLEGE PA
700 PM EST MON DEC 05 2016

Note: "fair" indicates few or no clouds below 12,000 feet with no
significant weather and/or obstructions to visibility.

* = STATION THAT DOES NOT REPORT PRECIPITATION /E.G. RAIN...SNOW...ETC/
    THUNDER OR FOG.

PAZ002>004-007>009-013>016-020>023-029>032-060100-
WESTERN PENNSYLVANIA

CITY           SKY/WX    TMP DP  RH WIND       PRES   REMARKS
ERIE           CLOUDY    40  30  67 SW7       30.10R
MEADVILLE      MOCLDY    35  28  75 SW5       30.07S
FRANKLIN*        N/A     36  25  64 CALM      30.09R
NEW CASTLE     FAIR      32  27  81 CALM      30.10S
BEAVER COUNTY  MOCLDY    36  28  75 CALM      30.09S
BUTLER*        CLOUDY    34  25  69 CALM      30.12S
PITTSBURGH INT CLOUDY    39  29  67 NE3       30.08F
PITTSBURGH     PTCLDY    36  26  67 N3        30.08S
INDIANA*       CLOUDY    37  30  75 W3        30.12R
LATROBE        PTCLDY    34  28  80 CALM      30.10S
WASHINGTON CO* PTCLDY    30  23  74 CALM      30.08F
$$

PAZ004>006-010>012-017>019-024>028-033>037-041-042-045-046-049>053-060100-
CENTRAL PENNSYLVANIA

CITY           SKY/WX    TMP DP  RH WIND       PRES   REMARKS
BRADFORD       CLOUDY    33  29  85 W10       30.04R
DUBOIS         MOCLDY    33  27  78 W6        30.05R
CLEARFIELD     PTCLDY    35  29  78 SW3       30.07R
JOHNSTOWN      CLOUDY    34  28  79 W5        30.05S
ALTOONA        CLOUDY    36  28  73 W5        30.09R
STATE COLLEGE  PTCLDY    36  28  75 W5        30.08R
WILLIAMSPORT   MOCLDY    42  30  62 NW5       30.07R
SELINSGROVE    CLOUDY    32  32 100 CALM      30.09R
FT INDIANTOWN  PTCLDY    42  29  61 W7        30.08R
CAPITAL CITY   CLOUDY    43  28  55 W6        30.09R
HARRISBURG     CLOUDY    41  31  67 NW8       30.09R
YORK           PTCLDY    33  31  92 CALM      30.09R
$$

PAZ038>040-043-044-047-048-054-055-060>062-067>071-060100-
EASTERN PENNSYLVANIA

CITY           SKY/WX    TMP DP  RH WIND       PRES   REMARKS
SCRANTON       CLOUDY    40  28  62 W6        30.03R
MOUNT POCONO   CLOUDY    33  29  85 NW6       29.99R
ALLENTOWN      CLOUDY    34  27  75 SW5       30.06R
QUAKERTOWN*    CLOUDY    37  32  81 CALM      30.06R
READING        CLOUDY    41  30  65 NW7       30.07R
LANCASTER      PTCLDY    41  32  70 NW5       30.08R
COATESVILLE    PTCLDY    39  32  75 NW8       30.08R
POTTSTOWN      PTCLDY    37  32  82 CALM      30.08R
BLUE BELL      PTCLDY    36  34  93 CALM      30.05R
DOYLESTOWN     CLOUDY    41  35  79 CALM      30.05R
WILLOW GROVE   NOT AVBL
NORTH PHILA    CLOUDY    41  34  76 CALM      30.07R
PHILADELPHIA   MOCLDY    45  34  65 W7        30.08R
$$




USA.gov is the U.S. government's official web portal to all federal, state and local government web resources and services.